Location: Newark
(40.7066°N, 111.8219°W)
Time: 14:47:43
(UTC+00:00)

Vanguard 2 Rocket - Visible Passes

Search period start: 21 November 2019 00:00
Search period end: 01 December 2019 00:00
Orbit: 554 x 3326 km, 32.9° (Epoch: 20 November)

Date Brightness Start Highest point End Pass type
(mag) Time Alt. Az. Time Alt. Az. Time Alt. Az.
21 Nov 8.2 11:25:44 32° S 11:25:44 32° S 11:32:10 10° SE visible
21 Nov 9.2 13:33:10 10° WSW 13:38:26 20° SSW 13:45:47 10° SSE visible
22 Nov 9.3 10:29:42 16° SE 10:29:42 16° SE 10:31:29 10° ESE visible
22 Nov 8.6 12:35:31 17° SW 12:38:33 22° SSW 12:45:33 10° SSE visible
23 Nov 8.5 11:39:31 24° S 11:39:31 24° S 11:45:13 10° SE visible
23 Nov 9.6 13:50:08 10° SW 13:52:37 11° SSW 13:55:27 10° S visible
24 Nov 9.3 10:43:29 15° SE 10:43:29 15° SE 10:44:56 10° SE visible
24 Nov 9.0 12:49:24 10° SW 12:52:44 14° SSW 12:56:53 10° S visible
25 Nov 8.8 11:53:20 16° SSW 11:53:20 16° SSW 11:57:28 10° SSE visible
26 Nov 9.4 10:57:20 11° SSE 10:57:20 11° SSE 10:57:51 10° SSE visible
30 Nov 9.4 02:29:02 10° S 02:31:20 11° SSE 02:31:36 11° SSE visible
